{"data":{"norad_id":57772,"epoch":"2026-09-20T04:06:18.826272Z","epoch_age_seconds":176935,"freshness":"STALE","line1":"1 57772U 23134B   26263.17105123  .00000062  00000+0  11789-4 0  9997","line2":"2 57772  43.0016 179.2760 0001425 266.9925  93.0763 15.27579137169211","mean_motion":15.27579137,"eccentricity":0.0001425,"inclination_deg":43.0016,"raan_deg":179.276,"arg_perigee_deg":266.9925,"mean_anomaly_deg":93.0763,"bstar":1.1789e-5,"rev_number":16921,"period_min":94.266801969291,"perigee_km":482.07396078641,"apogee_km":484.02939956026,"semimajor_km":6861.1886801733,"source":"CELESTRAK","updated_at":"2026-09-21T09:00:33.683411Z"}}